Home   Weather   Nuremberg   Past weeks

Flag for Germany Past Weather in Nuremberg, Bavaria, Germany — Yesterday and Last 2 Weeks

Now
61 °F

Light rain. Partly sunny.


Feels Like: 61 °F
Forecast: 62 / 75 °F
Wind: 2 mph from North

Location: Nuernberg

Current Time: Jun 27, 2017 at 8:56:22 am

Latest Report: Jun 27, 2017 at 8:20 am


Visibility: 5 mi

Pressure: 29.89 "Hg

Humidity: 100%

Dew Point: 61 °F

Location of NurembergLocation

Past Weather in Nuremberg — Graph

°F

Nuremberg Temperature Yesterday

Maximum temperature yesterday: 82 °F (at 2:50 pm)
Minimum temperature yesterday: 64 °F (at 3:20 am)
Average temperature yesterday: 73 °F

High & Low Weather Summary for the Past Weeks

 TemperatureHumidityPressure
High93 °F (Jun 22, 3:20 pm)100% (Jun 18, 3:29 am)30.33 "Hg (Jun 18, 3:29 am)
Low46 °F (Jun 18, 5:50 am)20% (Jun 19, 5:20 pm)29.83 "Hg (Jun 22, 11:50 pm)
Average70 °F58%30.05 "Hg
* Reported Jun 12 7:20 am — Jun 27 7:50 am, Nuremberg. Weather by CustomWeather, © 2017

Note: Actual official high and low records may vary slightly from our data, if they occured in-between our weather recording intervals... More about our weather records

Advertising

Nuremberg Weather History for the Previous 24 Hours

Scroll right to see more
 ConditionsComfort  
Time TempWeatherWind HumidityBarometerVisibility
7:50 am
Tue, Jun 27
61 °FRain showers. Partly sunny.5 mph94%29.89 "Hg5 mi
7:20 am61 °FRain showers. Partly sunny.2 mph94%29.89 "Hg6 mi
6:50 am61 °FSprinkles. Partly sunny.1 mph100%29.89 "HgN/A
6:31 am61 °FSprinkles. Partly sunny.1 mph94%29.89 "HgN/A
6:20 am61 °FRain showers. Partly sunny.3 mph94%29.89 "HgN/A
5:50 am63 °FThunderstorms. Partly sunny.3 mph83%29.89 "HgN/A
5:20 am63 °FScattered showers. Clear.2 mph83%29.86 "HgN/A
5:03 am63 °FPassing clouds.6 mph83%29.86 "HgN/A
4:50 am63 °FClear.10 mph83%29.86 "Hg10 mi
4:20 am63 °FClear.2 mph83%29.86 "Hg10 mi
3:50 am61 °FClear.No wind88%29.86 "Hg10 mi
3:20 am63 °FClear.1 mph83%29.86 "Hg10 mi
2:50 am63 °FClear.No wind83%29.86 "Hg10 mi
2:20 am64 °FClear.No wind78%29.86 "Hg10 mi
1:50 am64 °FClear.No wind78%29.86 "Hg10 mi
1:20 am64 °FClear.No wind78%29.89 "Hg10 mi
12:50 am66 °FClear.No wind68%29.89 "Hg10 mi
12:20 am64 °FClear.2 mph73%29.89 "Hg10 mi
11:50 pm
Mon, Jun 26
68 °FClear.No wind69%29.89 "Hg10 mi
11:20 pm68 °FClear.1 mph69%29.89 "Hg10 mi
10:50 pm70 °FClear.2 mph60%29.86 "Hg10 mi
10:20 pm72 °FClear.2 mph57%29.86 "Hg10 mi
9:50 pm72 °FClear.2 mph57%29.86 "Hg10 mi
9:20 pm73 °FPassing clouds.5 mph53%29.86 "HgN/A
8:50 pm77 °FSunny.3 mph47%29.86 "Hg10 mi
8:20 pm79 °FPassing clouds.6 mph45%29.86 "HgN/A
7:50 pm81 °FSunny.5 mph39%29.86 "Hg10 mi
7:20 pm81 °FSunny.3 mph39%29.86 "Hg10 mi
6:50 pm81 °FSunny.5 mph39%29.86 "Hg10 mi
6:20 pm82 °FPassing clouds.8 mph40%29.86 "HgN/A
5:50 pm82 °FSunny.7 mph40%29.86 "Hg10 mi
5:20 pm82 °FPassing clouds.9 mph40%29.86 "HgN/A
4:50 pm82 °FPassing clouds.8 mph37%29.86 "HgN/A
4:20 pm82 °FPassing clouds.12 mph40%29.89 "HgN/A
3:50 pm82 °FPassing clouds.7 mph37%29.89 "HgN/A
3:20 pm82 °FPassing clouds.9 mph37%29.89 "HgN/A
2:50 pm82 °FPassing clouds.12 mph40%29.89 "HgN/A
2:20 pm81 °FPassing clouds.10 mph42%29.89 "HgN/A
1:50 pm79 °FPassing clouds.14 mph42%29.92 "HgN/A
1:20 pm79 °FPassing clouds.13 mph42%29.92 "HgN/A
12:50 pm77 °FScattered clouds.14 mph47%29.92 "HgN/A
12:20 pm75 °FScattered clouds.15 mph54%29.92 "HgN/A
11:50 am77 °FScattered clouds.16 mph47%29.92 "HgN/A
11:20 am77 °FScattered clouds.16 mph47%29.92 "HgN/A
10:50 am75 °FScattered clouds.15 mph54%29.92 "HgN/A
9:50 am73 °FPassing clouds.15 mph57%29.95 "HgN/A
9:20 am73 °FPassing clouds.16 mph61%29.95 "HgN/A
8:50 am72 °FScattered clouds.14 mph61%29.95 "HgN/A
8:20 am68 °FSunny.14 mph69%29.95 "Hg10 mi
Weather by CustomWeather, © 2017

See weather overviewHow to use our weather pages